Location: Boiro
(42.6475°N, 8.8834°W)
Time: 14:58:51
(UTC+02:00)

Explorer 7 - Pass Details

Date: 02 July 2022
Orbit: 482 x 668 km, 50.3° (Epoch: 15 August)

Event Time Altitude Azimuth Distance (km) Brightness Sun altitude
Rises 04:43:35 0° 297° (WNW) 2,979 10.5 -18.4°
Reaches altitude 10° 04:46:06 10° 305° (NW) 2,046 9.8 -18.1°
Maximum altitude 04:50:32 39° 15° (NNE) 944 8.5 -17.7°
Drops below altitude 10° 04:54:44 10° 84° (E) 1,943 10.1 -17.3°
Sets 04:57:05 0° 93° (E) 2,811 10.9 -17.1°
